CDT,Max TemperatureF,Mean TemperatureF,Min TemperatureF,Max Dew PointF,MeanDew PointF,Min DewpointF,Max Humidity, Mean Humidity, Min Humidity, Max Sea Level PressureIn, Mean Sea Level PressureIn, Min Sea Level PressureIn, Max VisibilityMiles, Mean VisibilityMiles, Min VisibilityMiles, Max Wind SpeedMPH, Mean Wind SpeedMPH, Max Gust SpeedMPH,PrecipitationIn, CloudCover, Events, WindDirDegrees
2013-9-1,86,77,68,60,58,53,73,57,40,30.00,29.92,29.82,10,10,10,17,8,22,0.00,2,,22
2013-9-2,91,78,65,62,57,53,84,56,28,30.04,29.98,29.90,10,10,8,18,9,23,0.00,1,,120
2013-9-3,95,78,60,56,51,45,72,46,20,30.03,29.97,29.91,10,10,10,20,10,28,0.00,0,,184
2013-9-4,97,78,58,50,46,38,72,43,13,30.05,30.01,29.97,10,10,3,16,8,28,0.00,0,,186
2013-9-5,96,78,59,49,43,37,62,38,14,30.08,30.03,29.99,10,10,10,18,9,24,0.00,0,,167
2013-9-6,96,76,56,48,43,38,57,37,16,30.05,29.99,29.91,10,10,4,20,9,33,0.00,0,,194
2013-9-7,96,79,61,54,50,46,67,44,20,29.98,29.94,29.88,10,9,6,20,8,25,0.00,1,,197
2013-9-8,94,78,61,54,51,45,72,46,20,29.99,29.87,29.78,10,10,6,22,9,25,0.00,1,,182
2013-9-9,91,78,64,56,51,44,63,42,21,29.86,29.82,29.75,10,10,10,24,14,35,0.00,0,,183
2013-9-10,84,73,61,64,58,54,81,61,40,30.15,29.97,29.86,10,9,1,28,10,33,0.23,3,Rain-Thunderstorm,173
2013-9-11,72,69,66,66,64,62,93,86,78,30.23,30.11,30.00,10,7,1,17,7,21,0.24,7,Rain,174
2013-9-12,80,73,65,66,64,57,93,71,48,30.26,30.14,30.00,10,6,2,15,7,18,T,7,Rain,82
2013-9-13,83,73,63,64,61,57,93,69,45,30.11,30.01,29.87,10,7,2,22,10,28,0.11,5,Rain,131
2013-9-14,81,72,63,63,61,54,93,68,43,30.10,29.97,29.84,10,6,2,23,9,28,T,5,,186
2013-9-15,83,71,59,64,58,52,90,63,36,30.31,30.06,29.86,10,7,1,25,9,32,0.93,5,Rain-Thunderstorm,4
2013-9-16,76,68,60,62,58,57,90,75,60,30.29,30.16,30.03,10,9,4,15,6,18,T,6,Rain-Thunderstorm,62
2013-9-17,83,72,61,63,60,56,100,71,42,30.17,29.98,29.83,10,8,4,25,14,36,0.00,2,,193
2013-9-18,87,75,63,62,59,54,87,61,34,29.90,29.82,29.72,10,10,10,26,16,35,0.00,0,Thunderstorm,202
2013-9-19,83,73,63,63,60,57,93,69,45,30.11,29.87,29.78,10,10,5,22,9,26,0.13,2,,181
2013-9-20,73,65,57,61,54,50,86,67,47,30.22,30.08,29.96,10,9,2,18,10,23,T,7,Rain,65
2013-9-21,80,66,52,58,54,49,96,71,45,30.12,29.95,29.82,10,10,7,21,11,26,0.00,1,,193
2013-9-22,83,69,54,57,50,41,93,59,24,29.82,29.71,29.58,10,10,7,29,17,36,0.00,0,,187
2013-9-23,82,68,54,53,44,35,93,57,20,29.98,29.71,29.57,10,10,4,38,10,47,T,2,,264
2013-9-24,80,64,47,47,44,40,86,56,25,30.06,29.98,29.91,10,10,10,16,6,20,0.00,0,,257
2013-9-25,87,68,48,46,41,34,80,48,15,29.89,29.73,29.61,10,10,10,31,16,38,0.00,0,,190
2013-9-26,91,73,55,49,44,40,72,45,17,29.66,29.61,29.57,10,10,10,32,17,45,0.00,1,,199
2013-9-27,81,70,58,61,55,46,87,62,36,29.84,29.68,29.59,10,10,10,35,16,44,T,5,Rain-Thunderstorm,196
2013-9-28,70,58,45,50,38,29,89,56,23,30.15,30.05,29.78,10,10,6,23,8,29,0.00,1,,351
2013-9-29,82,59,36,37,33,26,82,48,14,30.14,29.98,29.82,10,10,10,21,10,28,0.00,0,,188
2013-9-30,89,67,44,40,32,23,71,40,9,29.80,29.75,29.69,10,10,10,15,7,18,0.00,0,,252